Wind_Speed
16 9 19 27 19 7 7 6 7 4 5 5 15 16 15 25 10 17 31 30 34 38 31 32 33 32 33 35 37 36 35 37 34 32 30 31 32 30 28 27 26 25 24 23
8 21 29 13 12 11 6 8 10 4 5 7 4 17 15 10 16 27 30 33 40 41 39 38 34 33 36 35 38 38 38 37 37 37 35 35 34 32 29 28 28 28 28 27
20 22 17 16 14 15 15 13 5 2 3 2 5 10 5 11 27 27 35 40 35 38 42 40 37 36 36 39 37 38 40 39 37 38 37 38 36 35 35 34 32 31 30 29
13 21 22 18 18 14 20 5 4 3 3 4 6 6 6 7 12 11 29 35 42 39 39 40 39 38 37 38 36 38 38 39 39 38 40 42 42 40 37 37 35 34 32 31
19 19 23 25 29 23 10 9 6 3 2 1 3 4 6 1 7 11 19 33 43 47 42 42 42 38 40 36 37 37 39 39 39 40 42 43 45 43 39 39 39 37 34 34
9 10 12 8 4 9 7 5 4 2 2 8 9 8 6 8 12 6 12 33 42 44 46 44 38 35 35 38 39 38 40 40 40 40 40 43 44 45 43 39 39 38 37 37
23 14 6 19 11 5 9 9 4 7 6 10 6 8 17 6 7 7 10 24 29 34 41 46 48 48 42 39 42 42 40 39 38 39 40 41 42 43 42 40 38 39 37 37
14 10 19 18 18 16 29 22 5 9 8 6 3 10 6 13 31 25 28 16 12 16 25 31 36 40 42 44 41 42 43 40 39 37 37 37 39 39 39 39 40 39 39 38
12 10 19 15 7 15 14 16 10 5 2 3 6 8 8 10 15 14 23 30 27 18 16 19 23 29 38 41 41 42 42 40 41 37 34 35 35 36 37 36 37 37 36 37
7 7 22 6 6 1 15 16 11 2 5 5 5 6 8 9 14 12 10 28 38 26 22 19 17 21 29 36 39 39 40 41 39 37 37 35 34 33 33 35 36 36 36 36
6 4 7 12 16 20 8 17 9 5 5 6 2 7 8 12 15 12 11 26 30 27 25 26 22 21 21 27 35 37 38 38 39 39 38 37 35 34 34 35 35 36 35 36
29 8 13 27 5 1 20 19 20 12 16 4 0 6 2 11 4 12 19 28 27 23 21 20 21 20 19 21 24 26 29 33 33 32 32 33 35 35 35 35 34 34 35 34
16 7 7 9 4 4 14 17 23 11 3 13 12 9 1 3 6 12 15 25 24 21 23 22 20 18 17 17 19 21 23 26 27 28 29 31 32 33 34 34 34 35 34 34
25 7 24 17 30 24 18 33 28 24 15 23 19 14 5 5 7 6 12 17 19 21 22 20 20 20 20 20 20 20 19 19 21 23 25 26 28 29 31 32 33 33 33 34
16 19 17 24 19 14 21 25 24 28 32 16 27 12 8 9 10 18 21 18 18 20 23 24 21 20 19 18 17 16 15 14 15 17 18 19 20 22 23 23 24 25 25 26
13 10 7 4 9 22 23 22 25 23 28 22 26 17 8 19 14 9 20 23 23 29 32 27 21 18 20 20 18 16 15 16 16 17 18 18 18 18 18 18 18 17 17 17
9 9 14 19 5 12 10 25 28 28 28 29 27 33 8 7 8 21 28 29 33 40 39 29 24 21 22 21 18 17 16 16 16 16 16 16 16 16 16 16 15 15 15 16
14 13 6 5 11 15 8 17 24 30 29 29 27 13 19 20 31 36 35 38 42 43 40 30 24 24 21 23 19 18 17 15 14 13 13 15 15 15 15 15 16 16 17 18
25 15 4 6 12 3 4 9 30 24 32 29 26 29 18 19 20 21 43 45 46 41 43 33 27 26 24 23 19 17 16 16 16 17 17 17 16 16 16 16 17 18 19 19
20 22 10 5 8 14 22 10 20 4 19 19 30 33 30 18 10 19 46 46 41 43 38 35 31 26 26 24 21 20 18 18 19 20 20 19 18 17 17 17 16 15 15 16
14 11 14 10 4 7 7 13 33 13 20 24 36 43 34 15 33 51 29 39 43 40 38 33 28 30 29 27 25 23 21 21 22 22 20 19 18 17 15 14 12 12 12 12
8 9 5 4 3 13 14 25 24 18 7 4 30 45 34 46 35 32 32 31 43 44 40 33 30 30 30 28 25 24 24 23 24 23 21 19 16 14 12 9 7 6 6 7
8 8 8 11 13 1 39 10 17 18 9 14 15 24 41 44 42 38 35 36 40 43 34 28 27 29 30 30 28 26 25 25 24 22 19 17 14 12 9 7 5 4 4 5
1 3 5 5 4 5 22 4 22 5 8 10 11 14 22 36 39 38 30 34 33 31 30 29 31 30 29 28 27 26 25 25 24 23 21 17 14 11 9 7 6 6 7 8
1 4 4 1 3 2 2 22 7 23 4 7 9 10 16 23 28 35 37 32 28 26 26 28 29 28 27 26 27 28 27 26 26 23 21 19 16 13 10 8 7 6 6 4
8 5 1 0 6 6 4 14 11 15 24 13 9 9 9 12 15 24 29 33 33 32 31 31 28 26 26 25 26 27 26 25 24 23 21 18 16 14 13 11 9 7 6 4
Wind_Direction
193 202 208 203 206 213 158 179 207 219 179 141 220 237 243 246 240 239 238 237 233 234 236 232 229 226 227 223 222 223 227 230 229 227 227 230 232 229 227 230 232 234 236 236
178 219 214 189 209 213 184 189 225 303 165 184 244 252 245 239 245 237 242 242 242 244 237 233 232 228 228 224 221 221 225 228 229 231 232 235 239 238 237 235 236 236 238 241
206 218 204 192 192 204 215 210 199 188 105 289 354 272 227 244 240 240 244 249 254 253 241 233 231 229 227 225 223 222 223 228 230 232 233 237 242 243 241 239 238 238 240 242
228 217 188 192 202 188 218 162 183 185 129 231 166 282 241 236 239 214 235 237 243 245 242 238 237 232 229 229 228 229 228 228 231 232 234 238 241 242 244 245 246 245 245 248
203 194 190 190 203 185 213 161 201 198 186 346 184 269 259 182 251 244 229 236 237 240 238 237 241 238 235 233 233 233 232 232 232 233 235 239 243 250 251 252 252 252 252 252
210 224 185 180 140 156 132 109 71 82 128 241 220 205 244 204 227 250 232 237 238 237 239 238 234 235 238 236 235 236 235 235 234 235 237 241 245 249 253 254 255 255 255 256
202 194 136 157 142 142 188 177 176 210 209 247 191 197 241 215 238 228 246 250 246 245 242 240 237 237 239 240 234 235 236 236 238 238 240 242 246 249 254 256 256 257 258 258
187 190 182 180 190 183 195 198 172 196 194 213 113 236 232 224 249 248 251 255 223 238 236 236 236 237 237 237 236 235 236 236 238 241 243 246 249 249 252 254 256 257 258 261
190 211 183 182 181 159 190 202 192 98 25 81 203 279 295 253 260 250 243 236 244 241 232 234 230 228 230 234 236 236 236 239 241 242 245 248 249 249 251 253 255 257 260 261
191 175 186 188 124 221 182 178 187 197 158 249 253 282 229 221 225 230 224 227 238 244 233 226 222 226 227 230 235 237 239 242 245 244 244 247 253 256 257 257 257 260 263 266
214 216 186 151 201 187 169 189 207 207 166 189 233 248 206 212 219 216 220 223 226 234 233 224 225 227 230 231 231 235 238 241 244 246 247 249 252 255 258 261 263 265 269 271
204 205 191 202 161 176 197 204 195 202 210 228 36 272 203 237 205 211 223 218 218 223 222 220 222 225 226 223 221 227 233 239 243 246 247 247 250 254 257 260 263 268 272 273
183 217 178 175 216 30 203 211 200 221 73 216 221 252 336 282 244 224 227 214 216 220 209 212 212 211 209 208 213 219 227 235 240 241 241 243 246 250 255 261 265 265 266 268
183 203 199 202 200 186 187 199 200 203 220 229 224 238 259 259 236 227 218 201 203 202 201 205 209 209 210 212 214 217 222 227 231 234 239 243 247 250 252 254 258 262 265 267
211 208 208 213 202 178 206 206 202 207 222 214 232 225 258 231 214 214 212 197 192 194 192 190 190 192 192 192 195 199 202 207 215 221 227 234 239 244 248 252 254 256 259 262
209 191 153 164 176 197 200 199 208 219 231 233 247 249 189 231 220 200 203 195 196 192 189 189 187 190 191 191 194 199 206 211 216 221 227 233 238 241 243 245 249 252 255 258
212 169 175 208 184 159 206 197 199 210 220 216 224 231 153 212 208 213 208 202 205 202 195 192 193 194 200 201 204 211 219 225 228 231 235 240 243 244 246 248 251 255 257 259
187 200 179 154 131 201 220 199 203 207 219 222 238 242 213 215 226 228 220 208 213 211 202 202 204 206 207 204 212 215 218 222 226 230 234 238 240 243 247 250 253 255 258 261
189 182 131 166 194 328 279 216 193 187 226 217 223 233 233 212 220 240 235 224 222 216 211 211 217 213 207 206 208 207 209 217 226 232 233 234 237 242 247 250 252 256 260 264
196 192 185 166 179 203 233 141 183 108 262 207 216 227 225 161 201 231 226 230 226 222 214 213 213 211 209 210 210 213 219 232 237 236 234 235 239 243 245 248 252 255 260 265
190 186 194 179 169 272 239 147 144 150 235 216 210 225 216 193 215 231 227 226 225 221 212 212 216 212 211 212 215 218 228 237 236 230 228 230 232 233 235 238 244 255 265 273
161 164 167 122 135 257 160 152 168 210 194 110 215 225 216 220 227 227 225 218 215 208 210 213 214 212 212 214 220 227 231 229 224 222 220 220 219 219 222 229 244 260 272 288
171 191 171 201 206 282 171 181 188 179 183 215 243 224 220 221 214 211 213 217 207 209 209 208 206 211 214 219 222 224 225 219 215 213 207 203 203 203 203 208 212 232 264 282
179 158 170 132 216 184 199 167 204 176 206 226 240 241 225 220 210 205 197 195 198 202 208 214 212 214 217 218 219 220 216 211 205 199 195 192 191 192 195 209 225 251 266 272
12 124 165 293 36 9 266 217 221 223 243 212 203 196 198 200 204 211 211 210 207 206 207 212 212 212 215 218 215 209 204 201 196 192 190 188 186 190 200 211 222 237 246 252
359 19 23 52 6 314 28 348 262 245 234 234 219 183 173 199 202 210 214 217 217 212 208 205 207 211 209 207 204 200 195 193 194 189 187 187 193 195 199 204 211 218 223 253
Height
1517 1521 1515 1512 1519 1526 1531 1534 1535 1529 1528 1532 1529 1528 1524 1522 1524 1525 1525 1524 1525 1525 1528 1532 1534 1538 1541 1543 1546 1549 1553 1556 1561 1563 1566 1568 1569 1571 1572 1576 1579 1581 1582 1583
1514 1508 1504 1515 1522 1525 1530 1532 1531 1527 1527 1531 1528 1524 1519 1520 1517 1516 1517 1517 1517 1520 1523 1525 1529 1531 1534 1537 1539 1544 1547 1550 1554 1558 1561 1564 1566 1568 1571 1572 1574 1575 1578 1580
1499 1495 1512 1513 1517 1524 1525 1528 1532 1529 1528 1530 1529 1521 1515 1507 1505 1507 1508 1508 1510 1512 1514 1518 1521 1523 1527 1529 1533 1536 1540 1545 1548 1552 1556 1559 1562 1564 1566 1566 1568 1570 1573 1575
1498 1500 1502 1509 1513 1520 1524 1526 1526 1528 1531 1537 1528 1530 1510 1502 1498 1498 1496 1498 1500 1504 1508 1512 1515 1517 1520 1522 1528 1531 1535 1539 1544 1548 1549 1549 1552 1554 1558 1561 1564 1566 1569 1571
1487 1491 1495 1498 1491 1506 1517 1521 1527 1529 1532 1529 1530 1533 1504 1498 1497 1487 1487 1488 1490 1494 1498 1502 1506 1510 1514 1519 1520 1525 1529 1533 1536 1540 1543 1545 1546 1548 1553 1555 1558 1561 1564 1566
1484 1488 1491 1492 1502 1509 1517 1525 1529 1533 1534 1530 1522 1526 1499 1496 1485 1479 1478 1478 1480 1484 1488 1493 1499 1505 1508 1511 1515 1518 1521 1524 1529 1533 1536 1538 1540 1543 1545 1548 1551 1554 1556 1559
1485 1484 1484 1490 1503 1511 1515 1519 1530 1534 1532 1515 1511 1521 1482 1478 1474 1473 1473 1472 1473 1475 1479 1483 1489 1495 1500 1503 1507 1511 1515 1518 1521 1525 1529 1531 1533 1537 1539 1542 1545 1547 1548 1549
1471 1481 1478 1480 1483 1485 1494 1499 1510 1517 1519 1509 1520 1500 1478 1469 1465 1466 1468 1468 1468 1469 1470 1473 1478 1484 1490 1495 1500 1503 1507 1511 1514 1518 1521 1525 1528 1529 1531 1533 1536 1538 1539 1540
1467 1468 1471 1471 1475 1477 1494 1500 1495 1517 1550 1527 1511 1491 1475 1465 1463 1460 1460 1463 1463 1464 1465 1468 1471 1474 1481 1487 1491 1495 1499 1504 1506 1510 1514 1517 1520 1522 1523 1525 1528 1530 1532 1533
1455 1467 1460 1470 1476 1480 1479 1484 1504 1508 1530 1526 1502 1496 1469 1461 1455 1453 1455 1454 1456 1461 1461 1464 1467 1470 1473 1478 1483 1488 1492 1496 1500 1503 1507 1510 1512 1515 1517 1519 1520 1522 1525 1527
1448 1447 1462 1468 1464 1464 1478 1482 1486 1484 1501 1502 1507 1477 1452 1446 1443 1445 1445 1446 1451 1455 1456 1460 1463 1466 1468 1472 1476 1480 1484 1488 1492 1496 1500 1503 1506 1507 1510 1513 1515 1517 1519 1521
1438 1447 1452 1444 1459 1459 1459 1463 1468 1477 1483 1492 1491 1466 1436 1437 1437 1439 1439 1442 1446 1451 1454 1457 1459 1460 1462 1466 1470 1474 1478 1482 1485 1490 1493 1496 1499 1501 1503 1505 1507 1510 1511 1513
1431 1431 1446 1452 1459 1460 1457 1459 1460 1465 1477 1477 1481 1452 1438 1436 1438 1436 1436 1438 1443 1446 1450 1453 1455 1457 1459 1463 1467 1470 1473 1476 1479 1483 1486 1490 1493 1494 1496 1498 1500 1501 1503 1504
1421 1426 1413 1414 1416 1418 1439 1438 1443 1450 1460 1449 1454 1440 1437 1435 1436 1435 1436 1437 1439 1442 1446 1450 1453 1454 1456 1459 1462 1465 1468 1471 1474 1477 1481 1483 1486 1488 1489 1490 1491 1493 1495 1496
1410 1410 1411 1407 1415 1434 1430 1436 1441 1445 1437 1451 1429 1449 1444 1436 1433 1431 1432 1437 1439 1441 1444 1447 1450 1452 1454 1457 1460 1463 1465 1467 1470 1472 1475 1478 1480 1482 1483 1485 1486 1486 1487 1488
1409 1407 1412 1420 1419 1417 1426 1431 1435 1437 1434 1440 1431 1436 1429 1430 1430 1430 1432 1434 1436 1437 1439 1444 1447 1450 1452 1455 1459 1462 1464 1466 1467 1468 1471 1474 1476 1477 1479 1480 1480 1481 1481 1482
1402 1400 1403 1406 1418 1421 1427 1416 1418 1420 1422 1424 1425 1407 1425 1428 1428 1425 1426 1428 1430 1430 1433 1439 1442 1446 1449 1452 1455 1459 1461 1463 1464 1466 1467 1470 1472 1473 1474 1475 1476 1476 1477 1477
1392 1399 1397 1419 1416 1413 1395 1392 1395 1405 1406 1412 1411 1408 1414 1415 1417 1421 1421 1420 1420 1425 1431 1435 1439 1442 1445 1448 1451 1454 1456 1459 1461 1462 1463 1465 1467 1468 1469 1470 1471 1472 1473 1473
1370 1383 1401 1400 1397 1405 1390 1390 1385 1394 1384 1392 1402 1399 1407 1410 1415 1414 1414 1413 1414 1419 1425 1430 1435 1437 1440 1444 1446 1449 1453 1455 1457 1458 1459 1460 1462 1463 1464 1465 1465 1467 1467 1468
1364 1368 1378 1394 1389 1388 1350 1374 1383 1398 1398 1386 1386 1383 1391 1406 1415 1393 1398 1405 1409 1415 1420 1423 1428 1432 1436 1439 1442 1445 1448 1450 1451 1452 1453 1454 1456 1457 1459 1461 1461 1461 1461 1462
1360 1370 1369 1377 1382 1381 1363 1361 1377 1405 1368 1359 1366 1366 1381 1391 1380 1372 1392 1397 1403 1408 1413 1417 1422 1426 1430 1433 1436 1439 1440 1442 1444 1445 1446 1449 1450 1452 1454 1455 1456 1457 1457 1457
1352 1359 1369 1382 1392 1368 1348 1363 1357 1337 1345 1351 1354 1354 1367 1366 1373 1378 1384 1388 1391 1398 1404 1409 1415 1420 1424 1427 1430 1433 1435 1434 1438 1440 1440 1443 1446 1448 1450 1451 1453 1453 1454 1453
1343 1337 1351 1352 1332 1337 1331 1333 1339 1338 1343 1348 1350 1352 1355 1358 1362 1367 1374 1382 1384 1392 1399 1405 1409 1413 1417 1420 1422 1426 1427 1429 1432 1435 1437 1440 1442 1444 1445 1447 1446 1447 1449 1449
1332 1331 1339 1345 1338 1338 1335 1340 1339 1343 1345 1346 1345 1346 1348 1352 1356 1361 1369 1375 1380 1386 1391 1398 1402 1407 1411 1414 1417 1420 1423 1425 1427 1430 1432 1435 1438 1441 1442 1444 1444 1445 1445 1445
1334 1332 1339 1339 1337 1338 1336 1339 1343 1344 1343 1345 1344 1345 1346 1348 1351 1357 1363 1370 1376 1382 1386 1392 1397 1401 1405 1409 1413 1416 1419 1421 1424 1426 1429 1431 1433 1436 1439 1441 1441 1443 1444 1442
1352 1353 1344 1342 1353 1352 1343 1342 1339 1342 1345 1346 1347 1345 1344 1347 1349 1354 1360 1367 1372 1378 1382 1388 1391 1395 1399 1404 1410 1415 1417 1420 1423 1424 1427 1429 1431 1432 1433 1435 1437 1439 1440 1439